(°C)
(°C)
GD
GD
DGD
D
DGD
GGD
GGD
(km/saat)
6-12
6-11
5-11
6-8
7-12
9-15
7-14
(mm)
0
0
0
1
0
1.4
1.3
(%)
25
63
70
91
70
99
99

Sun elevation

/ -16.2°
sun-icon
UV 3
04:53
20:12
Hilal Şişkin (313°)
04:00
15:21

METAR for 52.17°K 20.97°D (EPWA)

Zaman Conditions Sıcaklık/
Çiy noktası
Rüzgar Görünürlük Hava Bulutlar Basınç Change Raw
VFR 7°C / 5°C variable 2kt >10km - Broken Clouds 4800ft 1006 No Significant change EPWA 070000Z VRB02KT 9999 BKN048 07/05 Q1006 NOSIG
VFR 7°C / 4°C variable 2kt >10km - Scattered Clouds 4700ft 1006 No Significant change EPWA 062330Z VRB02KT 9999 SCT047 07/04 Q1006 NOSIG
VFR 7°C / 4°C 120º 2kt >10km Light Showers Rain Few Clouds 5000ft 1006 No Significant change EPWA 062300Z 12002KT 9999 -SHRA FEW050CB 07/04 Q1006 NOSIG
VFR 7°C / 5°C 120º 2kt >10km - Few Clouds 5500ft 1007 No Significant change EPWA 062230Z 12002KT 9999 FEW055CB 07/05 Q1007 NOSIG
VFR 7°C / 4°C 200º 1kt >10km Light Showers Rain Few Clouds 5500ft 1007 No Significant change EPWA 062200Z 20001KT 9999 -SHRA FEW055CB 07/04 Q1007 NOSIG
VFR 7°C / 3°C variable 2kt >10km - Clouds and Visibility OK 1007 No Significant change EPWA 062130Z VRB02KT CAVOK 07/03 Q1007 NOSIG
VFR 8°C / 2°C 250º 2kt >10km - Clouds and Visibility OK 1007 No Significant change EPWA 062100Z 25002KT CAVOK 08/02 Q1007 NOSIG
VFR 8°C / 2°C variable 2kt >10km - Clouds and Visibility OK 1007 No Significant change EPWA 062030Z VRB02KT CAVOK 08/02 Q1007 NOSIG
VFR 8°C / 2°C variable 2kt >10km - Clouds and Visibility OK 1007 No Significant change EPWA 062000Z VRB02KT CAVOK 08/02 Q1007 NOSIG
VFR 9°C / 2°C 230º variable 200º to 270º 4kt >10km - Clouds and Visibility OK 1007 No Significant change EPWA 061930Z 23004KT 200V270 CAVOK 09/02 Q1007 NOSIG
VFR 8°C / 1°C 200º 5kt >10km - Clouds and Visibility OK 1007 No Significant change EPWA 061900Z 20005KT CAVOK 08/01 Q1007 NOSIG
VFR 9°C / 2°C 200º 5kt >10km - Clouds and Visibility OK 1007 No Significant change EPWA 061830Z 20005KT CAVOK 09/02 Q1007 NOSIG
VFR 9°C / 1°C 240º 3kt >10km - Clouds and Visibility OK 1007 No Significant change EPWA 061800Z 24003KT CAVOK 09/01 Q1007 NOSIG
VFR 9°C / 2°C 270º 6kt >10km - Clouds and Visibility OK 1007 No Significant change EPWA 061730Z 27006KT CAVOK 09/02 Q1007 NOSIG
VFR 9°C / 2°C 290º 12kt >10km - Few Clouds 5000ft 1007 No Significant change EPWA 061700Z 29012KT 9999 FEW050CB 09/02 Q1007 NOSIG
VFR 10°C / -1°C 260º variable 210º to 300º 16kt Gust 26kt >10km - Scattered Clouds 5000ft 1007 No Significant change EPWA 061630Z 26016G26KT 210V300 9999 SCT050CB 10/M01 Q1007 NOSIG
VFR 12°C / -1°C 240º 8kt >10km - Few Clouds 5000ft 1007 No Significant change EPWA 061600Z 24008KT 9999 FEW050CB 12/M01 Q1007 NOSIG
VFR 13°C / -1°C 240º variable 210º to 270º 10kt >10km - Clouds and Visibility OK 1007 No Significant change EPWA 061530Z 24010KT 210V270 CAVOK 13/M01 Q1007 NOSIG
VFR 12°C / -1°C 260º 15kt >10km - Clouds and Visibility OK 1007 No Significant change EPWA 061500Z 26015KT CAVOK 12/M01 Q1007 NOSIG
VFR 12°C / 0°C 240º variable 210º to 270º 9kt >10km - Clouds and Visibility OK 1007 No Significant change EPWA 061430Z 24009KT 210V270 CAVOK 12/M00 Q1007 NOSIG
VFR 12°C / 1°C 230º variable 170º to 260º 10kt >10km - Few Clouds 5000ft 1007 No Significant change EPWA 061400Z 23010KT 170V260 9999 FEW050CB 12/01 Q1007 NOSIG
VFR 11°C / -1°C 260º variable 220º to 290º 16kt >10km - Scattered Clouds 5000ft 1007 No Significant change EPWA 061330Z 26016KT 220V290 9999 SCT050CB 11/M01 Q1007 NOSIG
VFR 12°C / -2°C 230º variable 200º to 270º 14kt Gust 26kt >10km - Few Clouds 6000ft 1007 No Significant change EPWA 061300Z 23014G26KT 200V270 9999 FEW060CB 12/M02 Q1007 NOSIG
VFR 13°C / -2°C 260º 15kt >10km - Clouds and Visibility OK 1007 No Significant change EPWA 061230Z 26015KT CAVOK 13/M02 Q1007 NOSIG

VFR

7°C / 5°C

[Daha fazla]
Rüzgar variable 2kt
Görünürlük >10km
Hava -
Bulutlar Broken Clouds 4800ft
Basınç 1006
Change No Significant change
Raw EPWA 070000Z VRB02KT 9999 BKN048 07/05 Q1006 NOSIG

VFR

7°C / 4°C

[Daha fazla]
Rüzgar variable 2kt
Görünürlük >10km
Hava -
Bulutlar Scattered Clouds 4700ft
Basınç 1006
Change No Significant change
Raw EPWA 062330Z VRB02KT 9999 SCT047 07/04 Q1006 NOSIG

VFR

7°C / 4°C

[Daha fazla]
Rüzgar 120º 2kt
Görünürlük >10km
Hava Light Showers Rain
Bulutlar Few Clouds 5000ft
Basınç 1006
Change No Significant change
Raw EPWA 062300Z 12002KT 9999 -SHRA FEW050CB 07/04 Q1006 NOSIG

VFR

7°C / 5°C

[Daha fazla]
Rüzgar 120º 2kt
Görünürlük >10km
Hava -
Bulutlar Few Clouds 5500ft
Basınç 1007
Change No Significant change
Raw EPWA 062230Z 12002KT 9999 FEW055CB 07/05 Q1007 NOSIG

VFR

7°C / 4°C

[Daha fazla]
Rüzgar 200º 1kt
Görünürlük >10km
Hava Light Showers Rain
Bulutlar Few Clouds 5500ft
Basınç 1007
Change No Significant change
Raw EPWA 062200Z 20001KT 9999 -SHRA FEW055CB 07/04 Q1007 NOSIG

VFR

7°C / 3°C

[Daha fazla]
Rüzgar variable 2kt
Görünürlük >10km
Hava -
Bulutlar Clouds and Visibility OK
Basınç 1007
Change No Significant change
Raw EPWA 062130Z VRB02KT CAVOK 07/03 Q1007 NOSIG

VFR

8°C / 2°C

[Daha fazla]
Rüzgar 250º 2kt
Görünürlük >10km
Hava -
Bulutlar Clouds and Visibility OK
Basınç 1007
Change No Significant change
Raw EPWA 062100Z 25002KT CAVOK 08/02 Q1007 NOSIG

VFR

8°C / 2°C

[Daha fazla]
Rüzgar variable 2kt
Görünürlük >10km
Hava -
Bulutlar Clouds and Visibility OK
Basınç 1007
Change No Significant change
Raw EPWA 062030Z VRB02KT CAVOK 08/02 Q1007 NOSIG

VFR

8°C / 2°C

[Daha fazla]
Rüzgar variable 2kt
Görünürlük >10km
Hava -
Bulutlar Clouds and Visibility OK
Basınç 1007
Change No Significant change
Raw EPWA 062000Z VRB02KT CAVOK 08/02 Q1007 NOSIG

VFR

9°C / 2°C

[Daha fazla]
Rüzgar 230º variable 200º to 270º 4kt
Görünürlük >10km
Hava -
Bulutlar Clouds and Visibility OK
Basınç 1007
Change No Significant change
Raw EPWA 061930Z 23004KT 200V270 CAVOK 09/02 Q1007 NOSIG

VFR

8°C / 1°C

[Daha fazla]
Rüzgar 200º 5kt
Görünürlük >10km
Hava -
Bulutlar Clouds and Visibility OK
Basınç 1007
Change No Significant change
Raw EPWA 061900Z 20005KT CAVOK 08/01 Q1007 NOSIG

VFR

9°C / 2°C

[Daha fazla]
Rüzgar 200º 5kt
Görünürlük >10km
Hava -
Bulutlar Clouds and Visibility OK
Basınç 1007
Change No Significant change
Raw EPWA 061830Z 20005KT CAVOK 09/02 Q1007 NOSIG

VFR

9°C / 1°C

[Daha fazla]
Rüzgar 240º 3kt
Görünürlük >10km
Hava -
Bulutlar Clouds and Visibility OK
Basınç 1007
Change No Significant change
Raw EPWA 061800Z 24003KT CAVOK 09/01 Q1007 NOSIG

VFR

9°C / 2°C

[Daha fazla]
Rüzgar 270º 6kt
Görünürlük >10km
Hava -
Bulutlar Clouds and Visibility OK
Basınç 1007
Change No Significant change
Raw EPWA 061730Z 27006KT CAVOK 09/02 Q1007 NOSIG

VFR

9°C / 2°C

[Daha fazla]
Rüzgar 290º 12kt
Görünürlük >10km
Hava -
Bulutlar Few Clouds 5000ft
Basınç 1007
Change No Significant change
Raw EPWA 061700Z 29012KT 9999 FEW050CB 09/02 Q1007 NOSIG

VFR

10°C / -1°C

[Daha fazla]
Rüzgar 260º variable 210º to 300º 16kt Gust 26kt
Görünürlük >10km
Hava -
Bulutlar Scattered Clouds 5000ft
Basınç 1007
Change No Significant change
Raw EPWA 061630Z 26016G26KT 210V300 9999 SCT050CB 10/M01 Q1007 NOSIG

VFR

12°C / -1°C

[Daha fazla]
Rüzgar 240º 8kt
Görünürlük >10km
Hava -
Bulutlar Few Clouds 5000ft
Basınç 1007
Change No Significant change
Raw EPWA 061600Z 24008KT 9999 FEW050CB 12/M01 Q1007 NOSIG

VFR

13°C / -1°C

[Daha fazla]
Rüzgar 240º variable 210º to 270º 10kt
Görünürlük >10km
Hava -
Bulutlar Clouds and Visibility OK
Basınç 1007
Change No Significant change
Raw EPWA 061530Z 24010KT 210V270 CAVOK 13/M01 Q1007 NOSIG

VFR

12°C / -1°C

[Daha fazla]
Rüzgar 260º 15kt
Görünürlük >10km
Hava -
Bulutlar Clouds and Visibility OK
Basınç 1007
Change No Significant change
Raw EPWA 061500Z 26015KT CAVOK 12/M01 Q1007 NOSIG

VFR

12°C / 0°C

[Daha fazla]
Rüzgar 240º variable 210º to 270º 9kt
Görünürlük >10km
Hava -
Bulutlar Clouds and Visibility OK
Basınç 1007
Change No Significant change
Raw EPWA 061430Z 24009KT 210V270 CAVOK 12/M00 Q1007 NOSIG

VFR

12°C / 1°C

[Daha fazla]
Rüzgar 230º variable 170º to 260º 10kt
Görünürlük >10km
Hava -
Bulutlar Few Clouds 5000ft
Basınç 1007
Change No Significant change
Raw EPWA 061400Z 23010KT 170V260 9999 FEW050CB 12/01 Q1007 NOSIG

VFR

11°C / -1°C

[Daha fazla]
Rüzgar 260º variable 220º to 290º 16kt
Görünürlük >10km
Hava -
Bulutlar Scattered Clouds 5000ft
Basınç 1007
Change No Significant change
Raw EPWA 061330Z 26016KT 220V290 9999 SCT050CB 11/M01 Q1007 NOSIG

VFR

12°C / -2°C

[Daha fazla]
Rüzgar 230º variable 200º to 270º 14kt Gust 26kt
Görünürlük >10km
Hava -
Bulutlar Few Clouds 6000ft
Basınç 1007
Change No Significant change
Raw EPWA 061300Z 23014G26KT 200V270 9999 FEW060CB 12/M02 Q1007 NOSIG

VFR

13°C / -2°C

[Daha fazla]
Rüzgar 260º 15kt
Görünürlük >10km
Hava -
Bulutlar Clouds and Visibility OK
Basınç 1007
Change No Significant change
Raw EPWA 061230Z 26015KT CAVOK 13/M02 Q1007 NOSIG

TAF for 52.17°K 20.97°D (EPWA)

From till


From till Wind variable 2kt. Visibility 10km or more. Nil Significant Cloud.
Becoming from till Wind variable 2kt. Visibility 10km or more. Light Rain . Scattered Clouds 700ft. Broken Clouds 1200ft.
Temporarly from till Visibility 3000m. Rain Mist . Broken Clouds 600ft.
Becoming from till Wind 290º 10kt. Visibility 10km or more. Light Rain . Broken Clouds 1600ft.
Temporarly from till Light Showers Rain . Broken Clouds 700ft. Broken Clouds 1200ft.
Becoming from till Wind 290º 10kt. Visibility 10km or more. Light Rain . Broken Clouds 1000ft.
Temporarly from till Visibility 3000m. Rain Mist . Broken Clouds 600ft.
With 40% probability, Temporarly from till Visibility 2000m. Rain Snow Mist . Broken Clouds 400ft.

Raw: TAF EPWA 062330Z 0700/0724 VRB02KT CAVOK BECMG 0702/0705 -RA SCT007 BKN012 TEMPO 0704/0711 3000 RA BR BKN006 BECMG 0709/0711 29010KT BKN016 TEMPO 0711/0717 -SHRA BKN007 BKN012CB BECMG 0715/0717 -RA BKN010 TEMPO 0717/0724 3000 RA BR BKN006 PROB40 TEMPO 0718/0724 2000 RASN BR BKN004

Current satellite and rain images for 52.17°K 20.97°D

  • Yağış:
  • <1 mm
  • 1-2 mm
  • 2-5 mm
  • >5 mm

Konum işaretleyici 52.17°K 20.97°D üzerine yerleştirilir. [Daha fazla]

The real-time satellite image combines visible light during daytime with infrared radiation during nighttime. At night, the image is not dark as infrared radiation can detect temperature differences. Unfortunately, low clouds and fog are difficult to distinguish from ground temperatures and thus can be almost invisible during the night. Meteosat satellite images for Europe are updated in real-time every 5 minutes. GOES-16/GOES-17 (North & South America) and Himawari (Asia) images update every 10 minutes.

Yağış radar ve uydudan tahmin edilir. Uydulardan gece yapılan yağış tahminleri gündüz yapılan tahminlere göre daha az kusursuzdur. Turuncu çarpılar şimşeklerin saptandığı yerleri gösterir (Avrupa üzeri).

Copyright 2021 EUMETSAT / meteoblue. nowcast tarafından sağlanan şimşek verileri.